{"data":{"norad_id":54066,"intl_designator":"2022-136R","name":"STARLINK-5151","alt_names":[],"object_type":"PAYLOAD","status":"ACTIVE","operator":null,"country":"US","launch_date":"2022-10-20","launch_site_code":"AFETR","launch_vehicle":null,"mission":null,"orbit_class":"UNKNOWN","rcs_meters":null,"size_class":null,"mass_kg":null,"dimensions":null,"purposes":["comms"],"wikipedia_slug":null,"has_3d_model":false,"image_url":null,"decayed_at":null,"tle_current":{"epoch":"2026-05-24T23:41:35.159136Z","epoch_age_seconds":72237,"freshness":"FRESH","line1":"1 54066U 22136R   26144.98721249 -.00022371  00000+0 -14190-2 0  9997","line2":"2 54066  53.2190   1.5164 0001185  88.9296 271.1831 15.08136725198365","mean_motion":15.08136725,"eccentricity":0.0001185,"inclination_deg":53.219,"raan_deg":1.5164,"arg_perigee_deg":88.9296,"mean_anomaly_deg":271.1831,"bstar":-0.001419,"rev_number":19836,"period_min":95.482059161446,"perigee_km":541.07383093724,"apogee_km":542.71387824978,"semimajor_km":6920.0308545935,"source":"CELESTRAK","updated_at":"2026-05-25T13:38:17.650326Z"}}}